QFA215 YPAD-OMDB

Flight info

Callsign QFA215
Flight time N/A
Altitude 34000
Route AREPA1 AREPA J58 WHA J251 WR DCT ARENI DCT AYE DCT SCHEE DCT 2024S12518E/N0502F360 1856S12306E 1718S12030E DCT ONALA G222 METUM DCT 1238S11235E DCT SAPDA L896 OBMAT/N0495F380 M766 KAT P570 DOTAT/N0489F400 P570 ITURA M762 MIVEK P574 IMPED IMPED3C
Aircraft B789/H-SDE1E2E3FGHIJ2J3J4J5M1RWXY/LB1D1

Departure

Time 2025-09-05 13:29
Airport Adelaide International Airport (YPAD)

Arrival

Time N/A
Airport Dubai International Airport (OMDB)
Time Latitude Longitude Altitude Speed Heading
2025-09-05 13:08 -34.93939 138.53858 31 ft 0 kts 320°
2025-09-05 13:12 -34.93940 138.53859 31 ft 0 kts 320°
2025-09-05 13:17 -34.93942 138.53861 31 ft 1 kts 320°
2025-09-05 13:17 -34.93971 138.53890 29 ft 3 kts 320°
2025-09-05 13:18 -34.93982 138.53926 28 ft 3 kts 271°
2025-09-05 13:18 -34.93983 138.53936 28 ft 0 kts 271°
2025-09-05 13:21 -34.94072 138.53902 31 ft 11 kts 165°
2025-09-05 13:22 -34.94232 138.53741 31 ft 18 kts 230°
2025-09-05 13:22 -34.94398 138.53501 30 ft 19 kts 230°
2025-09-05 13:22 -34.94482 138.53379 31 ft 19 kts 230°
2025-09-05 13:23 -34.94454 138.53109 31 ft 17 kts 298°
2025-09-05 13:24 -34.94722 138.52743 31 ft 23 kts 217°
2025-09-05 13:24 -34.94976 138.52505 31 ft 23 kts 218°
2025-09-05 13:25 -34.95235 138.52261 31 ft 24 kts 218°
2025-09-05 13:25 -34.95457 138.51963 31 ft 24 kts 230°
2025-09-05 13:26 -34.95673 138.51658 31 ft 23 kts 214°
2025-09-05 13:26 -34.95828 138.51741 31 ft 4 kts 78°
2025-09-05 13:26 -34.95811 138.51781 30 ft 0 kts 51°
2025-09-05 13:28 -34.95044 138.52899 40 ft 151 kts 50°
2025-09-05 13:28 -34.93686 138.54874 1474 ft 155 kts 51°
2025-09-05 13:29 -34.92231 138.56984 2698 ft 185 kts 44°
2025-09-05 13:29 -34.90251 138.59765 3695 ft 243 kts 46°
2025-09-05 13:30 -34.88028 138.62993 5630 ft 257 kts 45°
2025-09-05 13:30 -34.86857 138.64651 6669 ft 258 kts 42°
2025-09-05 13:30 -34.83545 138.65721 8372 ft 260 kts 347°
2025-09-05 13:31 -34.80289 138.63831 10229 ft 266 kts 327°
2025-09-05 13:32 -34.74683 138.60134 11165 ft 339 kts 330°
2025-09-05 13:32 -34.70495 138.57394 12924 ft 346 kts 329°
2025-09-05 13:33 -34.66198 138.54597 14543 ft 354 kts 329°
2025-09-05 13:33 -34.61787 138.51727 15940 ft 365 kts 328°
2025-09-05 13:34 -34.57251 138.48779 17306 ft 375 kts 328°
2025-09-05 13:34 -34.54965 138.47296 17973 ft 380 kts 327°
2025-09-05 13:34 -34.50244 138.44234 19240 ft 388 kts 327°
2025-09-05 13:35 -34.45434 138.41119 20429 ft 395 kts 327°
2025-09-05 13:36 -34.38060 138.36351 22134 ft 405 kts 327°
2025-09-05 13:36 -34.33045 138.33113 23207 ft 412 kts 327°
2025-09-05 13:37 -34.27955 138.29833 24158 ft 417 kts 326°
2025-09-05 13:38 -34.09722 138.18117 27048 ft 431 kts 324°
2025-09-05 13:41 -33.85326 138.02530 30177 ft 451 kts 322°
2025-09-05 13:42 -33.65821 137.90146 32346 ft 451 kts 320°
2025-09-05 13:45 -33.41974 137.75089 34102 ft 447 kts 318°
2025-09-05 13:46 -33.22685 137.62969 34096 ft 448 kts 318°
2025-09-05 13:48 -33.00042 137.50225 34099 ft 463 kts 327°
2025-09-05 13:50 -32.75568 137.40901 34089 ft 462 kts 328°
2025-09-05 13:53 -32.48069 137.30495 34084 ft 462 kts 328°
2025-09-05 13:54 -32.26607 137.22421 34079 ft 462 kts 328°
2025-09-05 13:57 -31.98989 137.12088 34081 ft 462 kts 328°
2025-09-05 13:58 -31.77571 137.04120 34069 ft 461 kts 329°
2025-09-05 14:01 -31.49898 136.93883 34071 ft 462 kts 329°
2025-09-05 14:02 -31.28308 136.85941 34066 ft 465 kts 329°
2025-09-05 14:04 -31.06564 136.72590 34086 ft 430 kts 307°
2025-09-05 14:06 -30.88792 136.53873 34053 ft 430 kts 307°
2025-09-05 14:09 -30.68797 136.32925 34047 ft 429 kts 307°
2025-09-05 14:10 -30.53246 136.16717 34039 ft 429 kts 307°
2025-09-05 14:13 -30.33233 135.95964 34036 ft 430 kts 308°
2025-09-05 14:14 -30.17587 135.79825 34031 ft 431 kts 308°
2025-09-05 14:17 -29.97437 135.59143 34030 ft 430 kts 308°
2025-09-05 14:18 -29.81777 135.43149 34027 ft 430 kts 308°
2025-09-05 14:21 -29.61599 135.22644 34023 ft 432 kts 309°
2025-09-05 14:22 -29.45846 135.06715 34016 ft 432 kts 309°
2025-09-05 14:25 -29.25505 134.86247 34010 ft 433 kts 309°
2025-09-05 14:26 -29.09649 134.70370 34008 ft 433 kts 309°
2025-09-05 14:29 -28.89211 134.50004 34011 ft 436 kts 310°
2025-09-05 14:30 -28.73190 134.34119 34012 ft 436 kts 310°
2025-09-05 14:33 -28.53409 134.14595 34007 ft 438 kts 310°
2025-09-05 14:34 -28.37436 133.98905 34005 ft 436 kts 310°
2025-09-05 14:37 -28.16711 133.78642 33997 ft 439 kts 311°
2025-09-05 14:38 -28.00552 133.62917 34000 ft 437 kts 311°
2025-09-05 14:40 -27.82045 133.44987 34000 ft 440 kts 311°
2025-09-05 14:42 -27.63476 133.27080 33996 ft 439 kts 311°
2025-09-05 14:44 -27.44860 133.09210 33996 ft 440 kts 311°
2025-09-05 14:46 -27.24689 132.89942 34006 ft 438 kts 312°
2025-09-05 14:48 -27.13718 132.79500 34007 ft 440 kts 312°
2025-09-05 14:50 -26.95057 132.61806 34005 ft 438 kts 312°
2025-09-05 14:52 -26.76296 132.44140 34014 ft 441 kts 312°
2025-09-05 14:54 -26.57471 132.26496 34008 ft 441 kts 312°
2025-09-05 14:56 -26.39561 132.09782 34004 ft 441 kts 313°